Weather History for KHQM - September, 2012

Change the Weather History Date:

Sunday, September 30, 2012

  Actual Average Record
Temperature  
Mean Temperature 54 °F 56 °F  
Max Temperature 66 °F 64 °F 85 °F (1987)
Min Temperature 42 °F 48 °F 33 °F (1971)
Degree Days  
Heating Degree Days 11 9  
Month to date heating degree days 189  
Cooling Degree Days 0 0  
Month to date cooling degree days 7  
Year to date cooling degree days 23  
Growing Degree Days 4 (Base 50)    
Moisture  
Dew Point 46 °F    
Average Humidity 77    
Maximum Humidity 97    
Minimum Humidity 52    
Precipitation  
Precipitation 0.00 in 0.11 in 1.22 in (2007)
Month to date precipitation 2.28  
Year to date precipitation 39.89  
Sea Level Pressure  
Sea Level Pressure 30.37 in    
Wind  
Wind Speed 3 mph (West)    
Max Wind Speed 10 mph    
Max Gust Speed -    
Visibility 10 miles    
Events      
T = Trace of Precipitation, MM = Missing Value Source: NWS Daily Summary

Daily Weather History Graph

Daily Weather History Graph

Search for Another Location

Airport or City:

Trip Planner

Search our weather history database for the weather conditions in past years. The results will help you decide how hot, cold, wet, or windy it might be!

Date:

Astronomy

Sep. 30, 2012 Rise Set
Actual Time 7:13 AM PDT 6:56 PM PDT
Civil Twilight 6:43 AM PDT 7:26 PM PDT
Nautical Twilight 6:08 AM PDT 8:01 PM PDT
Astronomical Twilight 5:32 AM PDT 8:37 PM PDT
Moon 6:55 PM PDT (9/30) 7:56 AM PDT (9/30)
Length of Visible Light 12h 42m
Length of Day
11h 42m
Full, 100% of the Moon is Illuminated
Sep 30
Full
Oct 8
Last Quarter
Oct 15
New
Oct 21
First Quarter
Oct 29
Full

Hourly Weather History & Observations

Time (PDT) Temp. Windchill Dew Point Humidity Pressure Visibility Wind Dir Wind Speed Gust Speed Precip Events Conditions
12:53 AM 46.9 °F - 44.1 °F 90% 30.33 in 10.0 mi WNW 3.5 mph - N/A   Clear
1:53 AM 48.0 °F - 44.1 °F 86% 30.33 in 10.0 mi NE 3.5 mph - N/A   Clear
2:53 AM 45.0 °F - 43.0 °F 93% 30.35 in 10.0 mi Calm Calm - N/A   Clear
3:53 AM 46.0 °F - 43.0 °F 89% 30.34 in 10.0 mi Calm Calm - N/A   Clear
4:53 AM 44.1 °F 42.5 °F 42.1 °F 93% 30.35 in 10.0 mi NE 3.5 mph - N/A   Clear
5:53 AM 43.0 °F 41.3 °F 42.1 °F 97% 30.35 in 10.0 mi ENE 3.5 mph - N/A   Clear
6:53 AM 42.8 °F - 41.0 °F 93% 30.37 in 10.0 mi Calm Calm - N/A   Clear
7:53 AM 44.1 °F - 42.1 °F 93% 30.40 in 10.0 mi Calm Calm - N/A   Partly Cloudy
8:53 AM 48.0 °F - 45.0 °F 89% 30.40 in 10.0 mi ENE 5.8 mph - N/A   Clear
9:53 AM 52.0 °F - 46.9 °F 83% 30.41 in 10.0 mi East 4.6 mph - N/A   Clear
10:53 AM 57.0 °F - 48.9 °F 74% 30.41 in 10.0 mi ESE 4.6 mph - N/A   Clear
11:53 AM 61.0 °F - 48.9 °F 64% 30.40 in 10.0 mi SE 3.5 mph - N/A   Clear
12:53 PM 64.0 °F - 46.9 °F 54% 30.40 in 10.0 mi Variable 3.5 mph - N/A   Clear
1:53 PM 64.0 °F - 48.0 °F 56% 30.39 in 10.0 mi West 6.9 mph - N/A   Clear
2:53 PM 64.9 °F - 50.0 °F 58% 30.39 in 10.0 mi West 10.4 mph - N/A   Clear
3:53 PM 66.0 °F - 48.0 °F 52% 30.38 in 10.0 mi West 10.4 mph - N/A   Clear
4:53 PM 64.0 °F - 48.9 °F 58% 30.38 in 10.0 mi WSW 8.1 mph - N/A   Clear
5:53 PM 63.0 °F - 48.0 °F 58% 30.37 in 10.0 mi West 6.9 mph - N/A   Clear
6:53 PM 60.1 °F - 46.0 °F 60% 30.37 in 10.0 mi West 4.6 mph - N/A   Clear
7:53 PM 57.0 °F - 46.9 °F 69% 30.38 in 10.0 mi WSW 3.5 mph - N/A   Clear
8:53 PM 53.1 °F - 46.0 °F 77% 30.38 in 10.0 mi Calm Calm - N/A   Clear
9:53 PM 54.0 °F - 48.0 °F 80% 30.38 in 10.0 mi SSW 3.5 mph - N/A   Clear
10:53 PM 52.0 °F - 48.0 °F 86% 30.37 in 10.0 mi Calm Calm - N/A   Clear
11:53 PM 51.1 °F - 48.0 °F 89% 30.36 in 10.0 mi Calm Calm - N/A   Clear